Regional Weather Roundup
Issued by NWS Huntsville, AL

Home | Current Version | Previous Version | Text Only | Print | Product List | Glossary On
Versions: 1 2 3 4 5 6 7 8 9 10 11 12 13 14 15 16 17 18 19 20 21 22 23 24 25 26 27 28 29 30 31 32 33 34 35 36 37 38 39 40 41 42 43 44 45 46 47 48 49 50
000
ASUS44 KHUN 070010
RWRHUN

WEATHER ROUNDUP FOR THE TENNESSEE VALLEY
NATIONAL WEATHER SERVICE HUNTSVILLE AL
700 PM CDT WED MAY 06 2015

ALZ001>004-070100-
NORTHWEST ALABAMA

CITY           SKY/WX    TMP DP  RH WIND       PRES   REMARKS
SHOALS AIRPORT CLEAR     77  54  44 SE5       30.09F
6HR MIN TEMP:  77; 6HR MAX TEMP:  84;

$$

ALZ005>007-016-070100-
NORTH CENTRAL ALABAMA

CITY           SKY/WX    TMP DP  RH WIND       PRES   REMARKS
DECATUR AP     CLEAR     75  52  44 SE5       30.10S
6HR MIN TEMP:  74; 6HR MAX TEMP:  82;

HUNTSVILLE AP  CLEAR     80  49  33 SE7       30.09S
6HR MIN TEMP:  80; 6HR MAX TEMP:  85;

HUN NWS/UAH      N/A     79  46  31 S5          N/A
MERIDIANVILLE  CLEAR     79  37  22 S6        30.10S
REDSTONE ARSN  CLEAR     77  51  39 SE5       30.09S
VINEMONT AP    FAIR      76  53  43 CALM      30.13S
$$

ALZ008>010-070100-
NORTHEAST ALABAMA

CITY           SKY/WX    TMP DP  RH WIND       PRES   REMARKS
ALBERTVILLE    CLEAR     75  61  60 CALM      30.10S
FORT PAYNE     CLEAR     77  46  33 CALM      30.10S
SCOTTSBORO AP  CLEAR     77  52  41 SW3       30.10S
SCOTTSBORO HCN   N/A     77 N/A N/A MISG        N/A
VALLEY HEAD      N/A     73 N/A N/A MISG        N/A
$$

TNZ076-096-097-070100-
SOUTHEASTERN MIDDLE TENNESSEE

CITY           SKY/WX    TMP DP  RH WIND       PRES   REMARKS
TULLAHOMA      CLEAR     75  46  35 CALM      30.11S
WINCHESTER     CLEAR     79  54  41 S3        30.11R
$$

...SURROUNDING SITES...

CITY           SKY/WX    TMP DP  RH WIND       PRES   REMARKS
ATLANTA        PTCLDY    78  49  35 SE7       30.11S
ANNISTON       CLEAR     77  54  44 CALM      30.10S
BIRMINGHAM     PTCLDY    78  52  40 SE3       30.11S
CHATTANOOGA    PTCLDY    81  52  36 S3        30.09S
CORINTH        FAIR      79  54  41 SE6       30.06S
DALTON         CLEAR     77  55  47 CALM      30.10S
GADSDEN        PTCLDY   N/A N/A N/A CALM      30.08S
GOLDEN TRNGL   PTCLDY    79  57  47 E9        30.05S
HALEYVILLE       N/A     76  55  47 MISG      30.12S
JACKSON TN     PTCLDY    79  50  36 SE3       30.06F
LEWISBURG      MOCLDY    80  54  40 S3        30.08S
MEMPHIS        PTCLDY    81  49  32 SE8       30.04F
NASHVILLE      PTCLDY    81  55  40 CALM      30.07F
OXFORD MS      FAIR      77  54  44 CALM      30.07S
ROME           CLEAR     77  54  44 CALM      30.08F
SAVANNAH       CLEAR     79  32  18 CALM      30.08S
TUPELO         CLEAR     80  54  40 S6        30.06S
TUSCALOOSA     CLEAR     79  56  45 SE6       30.07S
$$

...GULF COAST WEATHER...

CITY           SKY/WX    TMP DP  RH WIND       PRES   REMARKS
GULFPORT       CLEAR     76  68  76 SE15      30.04S
PASCAGOULA     CLEAR     76  64  66 SE10      30.05S
MOBILE         CLEAR     77  60  55 S7        30.06R
GULF SHORES    CLEAR     74  67  78 SE5       30.05S
PENSACOLA      PTCLDY    74  66  76 SW7       30.05S
DESTIN         CLEAR     77  65  66 SW7       30.05S
PANAMA CITY    CLEAR     74  67  76 SW8       30.05S
APPALACHICOLA  PTCLDY    77  66  68 W5        30.04S
$$



USA.gov is the U.S. government's official web portal to all federal, state and local government web resources and services.